User: anonymous   Login
Location: Jetmore Motorplex
(37.9889°N, 99.8876°W)
Time: 07:13:34
(UTC+00:00)
Language:

STARLINK-45 - Orbit

View from above orbital plane
View from above orbital plane
View from above satellite
View from above satellite

Ground track
Ground track

The orbit data is extracted from the following two-line orbital elements,

1 44260C 19029AB  20157.04231396  .00908480  00000-0  28502-1 0  1573
2 44260  53.0085 264.9663 0001355 107.0646 180.1114 15.31581896    17
Epoch (UTC): 05 June 2020 01:00:55
Eccentricity: 0.0001355
inclination: 53.0085°
perigee height: 470 km
apogee height: 472 km
right ascension of ascending node: 264.9663°
argument of perigee: 107.0646°
revolutions per day: 15.31581896
mean anomaly at epoch: 180.1114°
orbit number at epoch: 1

The dashed part of the orbit path shows where the satellite is in the earth's shadow,  

DLR